GFSGL_prec_pwat_036.txt.gz
Precipitable_Water
0.31 0.31 0.33 0.33 0.36 0.37 0.34 0.31 0.33 0.32 0.33 0.31 0.35 0.40 0.40 0.39 0.38 0.39 0.38 0.42 0.42 0.49 0.56 0.57 0.63 0.84 0.81 0.75 0.74 0.66 0.62 0.62 0.51 0.50 0.46 0.45 0.44 0.42 0.40 0.39 0.40 0.43 0.49
0.33 0.37 0.37 0.36 0.37 0.38 0.35 0.35 0.35 0.34 0.34 0.34 0.36 0.37 0.37 0.38 0.40 0.42 0.39 0.41 0.41 0.42 0.53 0.59 0.59 0.68 0.85 0.79 0.75 0.70 0.63 0.64 0.60 0.50 0.48 0.45 0.45 0.45 0.41 0.38 0.38 0.44 0.49
0.37 0.39 0.36 0.39 0.39 0.40 0.38 0.39 0.38 0.36 0.35 0.35 0.36 0.34 0.36 0.39 0.43 0.46 0.46 0.42 0.42 0.43 0.46 0.56 0.60 0.65 0.71 0.85 0.72 0.77 0.66 0.64 0.65 0.56 0.48 0.49 0.48 0.48 0.43 0.40 0.39 0.45 0.50
0.39 0.37 0.39 0.43 0.42 0.45 0.44 0.43 0.43 0.39 0.37 0.37 0.36 0.37 0.41 0.45 0.44 0.41 0.43 0.44 0.44 0.45 0.46 0.49 0.56 0.65 0.69 0.84 0.82 0.78 0.71 0.62 0.64 0.58 0.51 0.48 0.48 0.50 0.44 0.36 0.36 0.44 0.46
0.38 0.39 0.42 0.42 0.45 0.44 0.47 0.47 0.47 0.44 0.42 0.41 0.38 0.43 0.41 0.39 0.41 0.39 0.40 0.40 0.39 0.44 0.47 0.50 0.54 0.60 0.71 0.80 0.82 0.79 0.74 0.62 0.62 0.57 0.50 0.49 0.49 0.47 0.38 0.37 0.37 0.43 0.48
0.37 0.37 0.40 0.42 0.43 0.44 0.44 0.44 0.44 0.42 0.44 0.44 0.42 0.42 0.39 0.38 0.39 0.40 0.40 0.38 0.40 0.43 0.45 0.49 0.53 0.60 0.66 0.84 0.90 0.86 0.77 0.65 0.60 0.57 0.52 0.48 0.49 0.45 0.40 0.37 0.40 0.43 0.42
0.37 0.39 0.41 0.42 0.41 0.43 0.45 0.46 0.44 0.42 0.44 0.43 0.43 0.43 0.40 0.39 0.40 0.38 0.37 0.39 0.41 0.44 0.48 0.50 0.52 0.58 0.66 0.80 0.93 0.91 0.79 0.72 0.64 0.59 0.52 0.51 0.48 0.43 0.40 0.41 0.44 0.46 0.46
0.40 0.40 0.40 0.41 0.42 0.43 0.44 0.45 0.45 0.44 0.45 0.44 0.43 0.44 0.41 0.40 0.39 0.35 0.36 0.40 0.43 0.46 0.49 0.50 0.54 0.58 0.65 0.78 0.85 0.82 0.75 0.71 0.65 0.62 0.58 0.54 0.50 0.47 0.47 0.46 0.49 0.52 0.50
0.40 0.41 0.41 0.42 0.43 0.43 0.42 0.44 0.44 0.45 0.46 0.45 0.45 0.43 0.41 0.35 0.35 0.34 0.37 0.41 0.45 0.47 0.50 0.54 0.55 0.63 0.68 0.80 0.84 0.76 0.71 0.69 0.68 0.65 0.60 0.59 0.57 0.53 0.51 0.56 0.52 0.47 0.38
0.44 0.43 0.43 0.45 0.44 0.44 0.45 0.46 0.50 0.46 0.46 0.47 0.43 0.42 0.39 0.32 0.34 0.35 0.40 0.46 0.46 0.50 0.58 0.58 0.61 0.63 0.69 0.85 0.84 0.75 0.67 0.65 0.63 0.63 0.63 0.59 0.54 0.53 0.58 0.58 0.50 0.38 0.32
0.51 0.49 0.44 0.46 0.44 0.46 0.47 0.47 0.46 0.49 0.45 0.41 0.37 0.36 0.34 0.35 0.35 0.41 0.46 0.53 0.56 0.58 0.61 0.63 0.66 0.70 0.75 0.81 0.84 0.74 0.68 0.64 0.61 0.59 0.53 0.48 0.48 0.53 0.53 0.46 0.42 0.42 0.52
0.54 0.51 0.44 0.43 0.44 0.44 0.45 0.45 0.44 0.43 0.39 0.35 0.33 0.31 0.34 0.37 0.43 0.47 0.58 0.66 0.69 0.66 0.65 0.70 0.71 0.78 0.80 0.83 0.80 0.72 0.67 0.62 0.58 0.50 0.44 0.44 0.49 0.47 0.42 0.45 0.56 0.70 0.78
0.53 0.52 0.46 0.41 0.43 0.42 0.42 0.42 0.41 0.38 0.34 0.32 0.31 0.32 0.32 0.39 0.46 0.58 0.68 0.70 0.72 0.72 0.73 0.74 0.77 0.78 0.79 0.81 0.71 0.70 0.64 0.56 0.50 0.42 0.44 0.48 0.47 0.46 0.50 0.63 0.77 0.87 0.92
0.51 0.50 0.48 0.38 0.37 0.39 0.40 0.39 0.35 0.33 0.32 0.32 0.32 0.32 0.37 0.45 0.55 0.65 0.68 0.72 0.76 0.73 0.70 0.71 0.73 0.76 0.75 0.71 0.71 0.65 0.57 0.51 0.45 0.47 0.50 0.49 0.49 0.52 0.62 0.78 0.86 0.91 0.75
0.51 0.50 0.49 0.41 0.36 0.37 0.39 0.37 0.35 0.35 0.34 0.34 0.35 0.40 0.47 0.53 0.62 0.67 0.71 0.72 0.73 0.74 0.76 0.73 0.67 0.67 0.67 0.64 0.60 0.55 0.50 0.49 0.52 0.54 0.49 0.47 0.50 0.61 0.75 0.89 0.90 0.72 0.64
0.48 0.50 0.49 0.47 0.39 0.38 0.36 0.36 0.39 0.39 0.41 0.45 0.50 0.55 0.59 0.66 0.70 0.73 0.75 0.75 0.76 0.78 0.73 0.69 0.66 0.63 0.57 0.54 0.48 0.45 0.53 0.57 0.54 0.51 0.48 0.47 0.55 0.73 0.84 0.91 0.75 0.71 0.59
0.48 0.49 0.50 0.48 0.43 0.39 0.38 0.36 0.34 0.39 0.46 0.51 0.57 0.66 0.70 0.71 0.73 0.75 0.75 0.76 0.75 0.73 0.66 0.63 0.58 0.55 0.51 0.47 0.50 0.58 0.56 0.55 0.53 0.49 0.43 0.51 0.71 0.83 0.88 0.77 0.74 0.61 0.61
0.51 0.51 0.50 0.49 0.47 0.44 0.41 0.40 0.41 0.41 0.46 0.57 0.68 0.72 0.73 0.75 0.74 0.73 0.74 0.73 0.67 0.66 0.60 0.55 0.51 0.49 0.48 0.57 0.61 0.56 0.53 0.52 0.48 0.40 0.45 0.64 0.80 0.85 0.87 0.75 0.73 0.61 0.60
0.50 0.50 0.52 0.52 0.53 0.51 0.47 0.46 0.48 0.51 0.57 0.60 0.66 0.72 0.73 0.74 0.74 0.72 0.69 0.63 0.61 0.56 0.54 0.53 0.53 0.56 0.62 0.61 0.57 0.54 0.51 0.47 0.38 0.41 0.51 0.72 0.82 0.89 0.89 0.77 0.73 0.66 0.61
0.51 0.52 0.53 0.52 0.52 0.54 0.54 0.52 0.54 0.58 0.59 0.62 0.64 0.67 0.69 0.68 0.64 0.64 0.63 0.59 0.57 0.57 0.57 0.55 0.59 0.65 0.65 0.59 0.54 0.52 0.46 0.34 0.36 0.41 0.56 0.74 0.84 0.93 0.90 0.83 0.78 0.68 0.65
0.51 0.53 0.55 0.55 0.56 0.60 0.62 0.61 0.61 0.61 0.61 0.63 0.65 0.69 0.68 0.65 0.62 0.62 0.62 0.60 0.63 0.71 0.68 0.67 0.68 0.68 0.62 0.56 0.53 0.47 0.35 0.29 0.35 0.42 0.56 0.73 0.86 0.93 0.95 0.95 0.87 0.76 0.73
0.52 0.54 0.56 0.56 0.58 0.59 0.61 0.62 0.63 0.63 0.64 0.63 0.65 0.67 0.66 0.63 0.62 0.62 0.62 0.64 0.72 0.67 0.66 0.66 0.67 0.64 0.59 0.54 0.50 0.40 0.33 0.29 0.29 0.42 0.55 0.70 0.88 0.94 0.96 0.97 0.94 0.83 0.88
0.53 0.54 0.55 0.57 0.59 0.60 0.60 0.62 0.62 0.63 0.63 0.64 0.65 0.65 0.65 0.64 0.64 0.65 0.63 0.69 0.70 0.69 0.69 0.70 0.67 0.64 0.59 0.55 0.48 0.38 0.33 0.31 0.29 0.34 0.52 0.66 0.86 0.93 0.95 0.96 0.96 0.95 0.97
0.53 0.54 0.55 0.56 0.57 0.59 0.60 0.60 0.61 0.62 0.63 0.63 0.64 0.65 0.65 0.66 0.66 0.66 0.69 0.72 0.71 0.71 0.72 0.69 0.67 0.64 0.57 0.51 0.43 0.40 0.38 0.36 0.34 0.31 0.41 0.59 0.79 0.91 0.94 0.96 0.96 0.98 1.01
0.52 0.54 0.54 0.55 0.56 0.57 0.58 0.59 0.60 0.61 0.62 0.63 0.63 0.64 0.66 0.67 0.68 0.69 0.70 0.71 0.70 0.67 0.69 0.65 0.66 0.60 0.53 0.49 0.42 0.40 0.39 0.37 0.35 0.35 0.35 0.47 0.68 0.85 0.91 0.93 0.96 0.98 1.00
0.53 0.53 0.54 0.55 0.55 0.56 0.56 0.57 0.57 0.60 0.61 0.63 0.64 0.65 0.66 0.67 0.69 0.68 0.68 0.68 0.66 0.64 0.66 0.62 0.59 0.56 0.53 0.50 0.46 0.41 0.39 0.38 0.37 0.37 0.35 0.34 0.44 0.64 0.82 0.88 0.92 0.95 0.97

GFSGL_prec_pwat_042.txt.gz
Precipitable_Water
0.28 0.30 0.31 0.33 0.35 0.36 0.36 0.37 0.39 0.38 0.36 0.37 0.40 0.41 0.41 0.41 0.42 0.41 0.39 0.42 0.44 0.45 0.44 0.43 0.44 0.46 0.45 0.50 0.54 0.51 0.48 0.58 0.66 0.76 0.84 0.77 0.71 0.70 0.68 0.62 0.56 0.54 0.55
0.32 0.32 0.33 0.35 0.37 0.37 0.39 0.41 0.42 0.42 0.42 0.44 0.43 0.43 0.44 0.43 0.45 0.43 0.43 0.42 0.42 0.42 0.42 0.44 0.44 0.44 0.42 0.46 0.51 0.52 0.48 0.52 0.52 0.67 0.85 0.79 0.70 0.72 0.71 0.65 0.57 0.57 0.56
0.33 0.33 0.34 0.35 0.36 0.37 0.39 0.42 0.44 0.45 0.47 0.46 0.44 0.44 0.45 0.46 0.46 0.47 0.48 0.44 0.41 0.41 0.42 0.45 0.44 0.43 0.41 0.41 0.44 0.49 0.52 0.52 0.52 0.57 0.73 0.83 0.73 0.72 0.68 0.70 0.62 0.57 0.54
0.35 0.35 0.35 0.36 0.38 0.39 0.42 0.44 0.45 0.46 0.46 0.46 0.46 0.44 0.47 0.49 0.50 0.49 0.48 0.49 0.51 0.49 0.47 0.47 0.44 0.44 0.42 0.42 0.41 0.42 0.49 0.50 0.54 0.54 0.60 0.80 0.76 0.73 0.68 0.67 0.62 0.56 0.50
0.35 0.36 0.37 0.39 0.40 0.42 0.43 0.45 0.47 0.47 0.47 0.47 0.46 0.45 0.46 0.49 0.49 0.52 0.54 0.53 0.51 0.52 0.49 0.48 0.43 0.41 0.39 0.43 0.44 0.44 0.46 0.47 0.48 0.52 0.54 0.70 0.72 0.77 0.66 0.64 0.63 0.58 0.52
0.37 0.38 0.41 0.43 0.45 0.45 0.46 0.48 0.48 0.49 0.49 0.45 0.44 0.46 0.45 0.47 0.50 0.49 0.51 0.54 0.50 0.50 0.46 0.45 0.43 0.41 0.39 0.41 0.44 0.48 0.51 0.48 0.46 0.47 0.53 0.58 0.66 0.74 0.72 0.67 0.64 0.58 0.48
0.38 0.40 0.42 0.44 0.44 0.48 0.50 0.51 0.49 0.50 0.49 0.45 0.42 0.45 0.49 0.50 0.50 0.51 0.53 0.56 0.51 0.49 0.48 0.47 0.44 0.40 0.40 0.41 0.43 0.47 0.50 0.55 0.58 0.53 0.52 0.59 0.63 0.73 0.76 0.73 0.68 0.61 0.54
0.39 0.42 0.43 0.45 0.46 0.49 0.51 0.51 0.52 0.52 0.47 0.43 0.43 0.43 0.46 0.50 0.51 0.53 0.54 0.55 0.54 0.51 0.51 0.48 0.43 0.39 0.40 0.39 0.40 0.43 0.47 0.50 0.60 0.63 0.59 0.63 0.73 0.82 0.79 0.78 0.71 0.66 0.60
0.39 0.42 0.46 0.48 0.49 0.50 0.50 0.52 0.53 0.52 0.44 0.43 0.42 0.44 0.45 0.47 0.50 0.51 0.52 0.52 0.51 0.49 0.48 0.46 0.41 0.37 0.39 0.40 0.40 0.43 0.44 0.48 0.61 0.63 0.70 0.75 0.78 0.88 0.81 0.76 0.65 0.57 0.54
0.41 0.44 0.48 0.51 0.52 0.50 0.51 0.51 0.51 0.46 0.41 0.43 0.46 0.46 0.50 0.48 0.51 0.52 0.53 0.50 0.47 0.44 0.44 0.42 0.41 0.40 0.41 0.40 0.42 0.45 0.42 0.46 0.55 0.59 0.69 0.81 0.82 0.87 0.82 0.73 0.65 0.57 0.56
0.45 0.49 0.50 0.52 0.52 0.52 0.52 0.52 0.44 0.41 0.41 0.41 0.44 0.47 0.47 0.48 0.47 0.48 0.50 0.48 0.43 0.40 0.39 0.39 0.40 0.40 0.40 0.43 0.49 0.50 0.47 0.54 0.57 0.62 0.69 0.74 0.78 0.76 0.77 0.71 0.68 0.65 0.58
0.49 0.50 0.49 0.51 0.52 0.53 0.51 0.47 0.42 0.38 0.37 0.40 0.42 0.42 0.43 0.43 0.44 0.45 0.45 0.44 0.42 0.40 0.38 0.40 0.41 0.43 0.44 0.48 0.52 0.56 0.59 0.62 0.63 0.65 0.67 0.71 0.73 0.74 0.73 0.72 0.69 0.68 0.63
0.49 0.46 0.47 0.50 0.52 0.53 0.47 0.44 0.41 0.38 0.36 0.35 0.34 0.34 0.35 0.37 0.39 0.40 0.41 0.43 0.44 0.44 0.45 0.47 0.48 0.48 0.51 0.58 0.59 0.56 0.61 0.64 0.62 0.64 0.69 0.72 0.74 0.74 0.71 0.64 0.60 0.58 0.54
0.45 0.44 0.47 0.48 0.49 0.50 0.48 0.46 0.42 0.40 0.39 0.37 0.35 0.34 0.35 0.36 0.38 0.41 0.43 0.45 0.49 0.51 0.54 0.54 0.55 0.56 0.57 0.58 0.57 0.60 0.66 0.69 0.70 0.68 0.71 0.73 0.73 0.68 0.60 0.56 0.52 0.53 0.53
0.44 0.45 0.46 0.48 0.48 0.48 0.48 0.47 0.43 0.44 0.42 0.39 0.39 0.39 0.39 0.40 0.44 0.50 0.52 0.54 0.56 0.58 0.60 0.64 0.60 0.58 0.59 0.60 0.66 0.70 0.71 0.72 0.70 0.72 0.70 0.66 0.61 0.57 0.51 0.56 0.54 0.65 0.71
0.44 0.47 0.48 0.48 0.48 0.49 0.47 0.45 0.50 0.48 0.49 0.52 0.56 0.58 0.60 0.62 0.64 0.65 0.65 0.65 0.65 0.65 0.61 0.62 0.59 0.60 0.59 0.64 0.65 0.66 0.69 0.68 0.68 0.66 0.61 0.56 0.52 0.51 0.50 0.60 0.75 0.77 0.77
0.46 0.48 0.49 0.49 0.49 0.48 0.47 0.44 0.40 0.51 0.62 0.63 0.65 0.66 0.67 0.71 0.72 0.71 0.70 0.70 0.68 0.67 0.60 0.61 0.59 0.61 0.63 0.63 0.62 0.63 0.64 0.65 0.65 0.60 0.56 0.54 0.50 0.54 0.71 0.77 0.82 0.73 0.62
0.51 0.53 0.51 0.51 0.53 0.53 0.53 0.54 0.58 0.57 0.57 0.62 0.70 0.70 0.71 0.70 0.70 0.70 0.69 0.67 0.62 0.64 0.63 0.62 0.62 0.64 0.64 0.64 0.64 0.64 0.63 0.60 0.57 0.54 0.52 0.56 0.66 0.70 0.78 0.80 0.69 0.63 0.66
0.53 0.53 0.55 0.56 0.57 0.58 0.60 0.61 0.61 0.61 0.61 0.62 0.64 0.67 0.69 0.68 0.68 0.68 0.67 0.63 0.61 0.61 0.63 0.62 0.63 0.62 0.61 0.61 0.60 0.58 0.55 0.53 0.56 0.61 0.65 0.67 0.79 0.84 0.78 0.73 0.68 0.69 0.66
0.54 0.56 0.57 0.57 0.58 0.58 0.60 0.61 0.61 0.60 0.60 0.60 0.60 0.61 0.64 0.63 0.60 0.61 0.62 0.61 0.59 0.60 0.60 0.60 0.59 0.57 0.56 0.54 0.55 0.57 0.59 0.63 0.62 0.65 0.75 0.80 0.85 0.81 0.73 0.66 0.64 0.62 0.62
0.55 0.56 0.57 0.58 0.57 0.59 0.60 0.60 0.61 0.60 0.59 0.59 0.60 0.64 0.64 0.62 0.61 0.60 0.58 0.58 0.58 0.59 0.61 0.62 0.61 0.60 0.60 0.61 0.60 0.56 0.57 0.58 0.68 0.74 0.83 0.86 0.81 0.73 0.70 0.66 0.63 0.65 0.66
0.55 0.56 0.57 0.56 0.58 0.59 0.59 0.61 0.61 0.61 0.60 0.59 0.61 0.63 0.64 0.62 0.60 0.59 0.61 0.62 0.64 0.66 0.66 0.61 0.58 0.59 0.56 0.53 0.52 0.48 0.52 0.61 0.74 0.83 0.84 0.79 0.75 0.75 0.72 0.69 0.67 0.65 0.65
0.55 0.55 0.55 0.56 0.58 0.59 0.59 0.60 0.60 0.60 0.60 0.60 0.61 0.61 0.62 0.62 0.62 0.63 0.63 0.65 0.67 0.67 0.65 0.63 0.58 0.49 0.46 0.44 0.45 0.47 0.55 0.69 0.82 0.86 0.86 0.84 0.81 0.75 0.72 0.67 0.65 0.65 0.63
0.54 0.54 0.54 0.55 0.56 0.57 0.58 0.58 0.60 0.60 0.60 0.60 0.61 0.61 0.61 0.62 0.63 0.63 0.65 0.66 0.67 0.68 0.65 0.57 0.49 0.42 0.37 0.35 0.42 0.51 0.57 0.81 0.87 0.88 0.89 0.84 0.79 0.78 0.75 0.71 0.68 0.67 0.68
0.53 0.53 0.54 0.54 0.55 0.55 0.57 0.58 0.58 0.59 0.60 0.60 0.60 0.61 0.62 0.63 0.63 0.64 0.66 0.67 0.67 0.67 0.57 0.48 0.41 0.38 0.37 0.35 0.39 0.50 0.63 0.77 0.87 0.90 0.92 0.91 0.89 0.88 0.83 0.79 0.77 0.76 0.74
0.52 0.53 0.53 0.54 0.54 0.55 0.55 0.57 0.58 0.58 0.59 0.60 0.61 0.61 0.62 0.62 0.64 0.65 0.66 0.66 0.66 0.59 0.48 0.42 0.39 0.39 0.37 0.39 0.42 0.49 0.62 0.73 0.85 0.90 0.93 0.92 0.92 0.91 0.89 0.85 0.88 0.90 0.83

GFSGL_prec_pwat_045.txt.gz
Precipitable_Water
0.28 0.30 0.32 0.32 0.33 0.35 0.35 0.37 0.38 0.39 0.41 0.42 0.43 0.43 0.42 0.43 0.46 0.45 0.44 0.45 0.44 0.41 0.45 0.50 0.49 0.50 0.50 0.51 0.54 0.57 0.58 0.52 0.46 0.62 0.80 0.95 0.89 0.83 0.80 0.82 0.78 0.75 0.70
0.30 0.31 0.32 0.34 0.35 0.36 0.37 0.38 0.40 0.40 0.41 0.42 0.45 0.46 0.47 0.48 0.46 0.45 0.46 0.44 0.44 0.44 0.44 0.48 0.51 0.49 0.49 0.54 0.50 0.51 0.55 0.61 0.49 0.46 0.61 0.70 0.87 0.92 0.80 0.80 0.78 0.76 0.73
0.31 0.33 0.34 0.35 0.36 0.37 0.38 0.40 0.41 0.41 0.42 0.43 0.44 0.45 0.47 0.49 0.48 0.48 0.49 0.49 0.47 0.45 0.47 0.46 0.48 0.49 0.49 0.53 0.52 0.49 0.51 0.55 0.56 0.48 0.45 0.57 0.68 0.85 0.79 0.80 0.80 0.76 0.73
0.33 0.34 0.34 0.37 0.39 0.41 0.43 0.44 0.44 0.44 0.44 0.44 0.46 0.46 0.47 0.49 0.51 0.52 0.50 0.53 0.51 0.48 0.52 0.47 0.45 0.46 0.48 0.52 0.51 0.50 0.49 0.50 0.56 0.52 0.48 0.47 0.58 0.66 0.71 0.73 0.73 0.80 0.73
0.33 0.35 0.36 0.39 0.40 0.42 0.43 0.45 0.47 0.48 0.49 0.49 0.49 0.48 0.50 0.50 0.50 0.51 0.50 0.51 0.53 0.53 0.50 0.49 0.54 0.49 0.55 0.55 0.53 0.50 0.49 0.48 0.48 0.52 0.44 0.45 0.46 0.52 0.56 0.67 0.67 0.79 0.78
0.34 0.35 0.37 0.39 0.41 0.42 0.45 0.48 0.49 0.51 0.52 0.52 0.51 0.49 0.49 0.48 0.48 0.50 0.52 0.51 0.51 0.50 0.51 0.54 0.56 0.54 0.54 0.53 0.51 0.50 0.48 0.47 0.49 0.48 0.47 0.41 0.42 0.49 0.60 0.57 0.66 0.75 0.67
0.35 0.36 0.37 0.39 0.41 0.44 0.47 0.49 0.50 0.51 0.52 0.52 0.52 0.52 0.49 0.47 0.46 0.49 0.53 0.55 0.53 0.53 0.53 0.55 0.56 0.49 0.50 0.49 0.47 0.47 0.46 0.46 0.46 0.49 0.49 0.44 0.46 0.51 0.57 0.54 0.68 0.71 0.71
0.34 0.36 0.38 0.41 0.43 0.47 0.47 0.48 0.51 0.52 0.52 0.52 0.51 0.52 0.46 0.44 0.45 0.49 0.52 0.53 0.56 0.53 0.53 0.56 0.51 0.49 0.50 0.50 0.45 0.41 0.41 0.44 0.47 0.50 0.51 0.55 0.55 0.57 0.65 0.59 0.59 0.73 0.80
0.34 0.37 0.41 0.45 0.46 0.46 0.46 0.49 0.52 0.52 0.51 0.48 0.45 0.41 0.42 0.42 0.46 0.48 0.50 0.52 0.53 0.52 0.56 0.56 0.55 0.50 0.51 0.49 0.44 0.39 0.38 0.37 0.41 0.51 0.58 0.59 0.65 0.65 0.66 0.65 0.59 0.60 0.67
0.37 0.40 0.45 0.48 0.45 0.45 0.48 0.51 0.52 0.50 0.47 0.45 0.44 0.42 0.42 0.45 0.48 0.49 0.51 0.53 0.51 0.50 0.55 0.57 0.54 0.51 0.50 0.47 0.41 0.38 0.36 0.34 0.41 0.44 0.49 0.59 0.68 0.64 0.72 0.67 0.66 0.55 0.65
0.41 0.45 0.47 0.45 0.46 0.48 0.49 0.50 0.48 0.47 0.45 0.42 0.39 0.41 0.45 0.46 0.47 0.50 0.52 0.51 0.50 0.50 0.50 0.50 0.51 0.49 0.48 0.45 0.44 0.40 0.38 0.42 0.46 0.47 0.52 0.57 0.64 0.63 0.68 0.77 0.67 0.61 0.61
0.43 0.47 0.45 0.45 0.48 0.49 0.49 0.48 0.48 0.46 0.42 0.40 0.37 0.37 0.39 0.41 0.43 0.45 0.47 0.49 0.49 0.50 0.48 0.47 0.46 0.45 0.46 0.47 0.45 0.43 0.46 0.52 0.55 0.53 0.52 0.51 0.56 0.59 0.65 0.73 0.69 0.68 0.76
0.46 0.45 0.45 0.48 0.49 0.50 0.49 0.48 0.46 0.45 0.43 0.40 0.37 0.38 0.38 0.38 0.38 0.40 0.43 0.45 0.46 0.46 0.46 0.45 0.44 0.44 0.47 0.47 0.47 0.47 0.52 0.54 0.53 0.51 0.53 0.54 0.57 0.62 0.69 0.68 0.70 0.72 0.82
0.45 0.44 0.47 0.48 0.49 0.51 0.53 0.52 0.47 0.44 0.43 0.41 0.40 0.39 0.41 0.41 0.41 0.41 0.40 0.41 0.43 0.44 0.45 0.46 0.48 0.47 0.48 0.50 0.49 0.52 0.57 0.58 0.56 0.58 0.58 0.63 0.64 0.63 0.66 0.70 0.71 0.76 0.75
0.44 0.47 0.48 0.50 0.50 0.50 0.52 0.51 0.48 0.49 0.49 0.47 0.51 0.54 0.53 0.52 0.55 0.55 0.50 0.45 0.44 0.46 0.46 0.49 0.47 0.47 0.46 0.47 0.48 0.54 0.58 0.60 0.56 0.58 0.60 0.63 0.65 0.70 0.70 0.74 0.73 0.72 0.62
0.45 0.48 0.51 0.51 0.52 0.53 0.53 0.55 0.63 0.65 0.65 0.65 0.64 0.62 0.62 0.63 0.65 0.65 0.63 0.61 0.60 0.58 0.55 0.53 0.53 0.53 0.50 0.45 0.46 0.47 0.51 0.54 0.57 0.61 0.67 0.68 0.66 0.68 0.68 0.67 0.67 0.60 0.51
0.47 0.51 0.52 0.53 0.54 0.54 0.56 0.57 0.57 0.64 0.69 0.70 0.69 0.67 0.67 0.66 0.67 0.68 0.69 0.68 0.66 0.63 0.56 0.56 0.55 0.56 0.55 0.54 0.53 0.55 0.58 0.63 0.69 0.69 0.69 0.68 0.68 0.65 0.65 0.63 0.58 0.56 0.69
0.52 0.54 0.54 0.55 0.57 0.57 0.58 0.59 0.61 0.59 0.58 0.60 0.66 0.66 0.67 0.68 0.67 0.66 0.66 0.65 0.59 0.60 0.58 0.57 0.57 0.59 0.60 0.60 0.62 0.63 0.65 0.67 0.67 0.67 0.66 0.67 0.67 0.63 0.57 0.55 0.64 0.76 0.79
0.53 0.55 0.57 0.57 0.58 0.59 0.61 0.62 0.61 0.60 0.60 0.60 0.62 0.64 0.66 0.66 0.66 0.66 0.66 0.62 0.59 0.58 0.60 0.60 0.61 0.62 0.63 0.64 0.64 0.65 0.66 0.66 0.67 0.66 0.64 0.60 0.57 0.55 0.65 0.78 0.80 0.78 0.69
0.55 0.57 0.58 0.58 0.58 0.58 0.60 0.59 0.59 0.60 0.59 0.58 0.58 0.59 0.62 0.61 0.58 0.60 0.61 0.61 0.60 0.60 0.61 0.60 0.61 0.61 0.61 0.62 0.62 0.62 0.61 0.59 0.58 0.59 0.59 0.60 0.64 0.78 0.79 0.81 0.74 0.68 0.68
0.55 0.56 0.58 0.58 0.58 0.58 0.59 0.59 0.59 0.59 0.58 0.58 0.58 0.60 0.59 0.57 0.56 0.58 0.59 0.60 0.60 0.59 0.57 0.55 0.56 0.57 0.58 0.58 0.60 0.62 0.63 0.64 0.67 0.68 0.71 0.76 0.80 0.79 0.81 0.75 0.73 0.73 0.67
0.55 0.55 0.56 0.56 0.58 0.58 0.59 0.60 0.60 0.59 0.59 0.58 0.59 0.61 0.62 0.60 0.59 0.60 0.61 0.62 0.62 0.61 0.62 0.61 0.62 0.64 0.65 0.65 0.66 0.64 0.64 0.67 0.73 0.76 0.78 0.77 0.75 0.75 0.72 0.70 0.70 0.69 0.67
0.54 0.54 0.55 0.55 0.57 0.58 0.58 0.59 0.59 0.59 0.59 0.59 0.59 0.59 0.60 0.60 0.61 0.61 0.62 0.63 0.64 0.64 0.62 0.57 0.55 0.57 0.60 0.57 0.53 0.68 0.73 0.74 0.78 0.81 0.77 0.74 0.75 0.75 0.74 0.71 0.70 0.70 0.67
0.54 0.53 0.53 0.54 0.55 0.55 0.56 0.57 0.59 0.59 0.59 0.59 0.59 0.59 0.59 0.60 0.60 0.61 0.62 0.64 0.63 0.57 0.54 0.49 0.44 0.41 0.42 0.44 0.64 0.76 0.79 0.82 0.83 0.81 0.77 0.77 0.74 0.74 0.73 0.73 0.69 0.69 0.69
0.52 0.52 0.53 0.53 0.53 0.54 0.56 0.57 0.58 0.59 0.59 0.59 0.59 0.60 0.60 0.61 0.61 0.61 0.63 0.63 0.57 0.48 0.39 0.37 0.35 0.36 0.40 0.52 0.68 0.76 0.80 0.83 0.85 0.85 0.85 0.83 0.79 0.76 0.74 0.71 0.70 0.72 0.74
0.51 0.52 0.52 0.53 0.53 0.55 0.56 0.56 0.57 0.58 0.58 0.59 0.60 0.61 0.61 0.60 0.61 0.62 0.62 0.58 0.44 0.38 0.37 0.37 0.36 0.38 0.41 0.55 0.66 0.75 0.81 0.83 0.84 0.84 0.84 0.83 0.80 0.77 0.75 0.72 0.73 0.73 0.75

GFSGL_prec_pwat_048.txt.gz
Precipitable_Water
0.28 0.29 0.30 0.30 0.31 0.33 0.34 0.35 0.35 0.36 0.37 0.36 0.37 0.38 0.39 0.41 0.43 0.45 0.45 0.45 0.46 0.45 0.46 0.47 0.44 0.43 0.48 0.62 0.62 0.54 0.59 0.56 0.48 0.51 0.48 0.56 0.80 0.96 1.01 0.97 0.94 0.91 0.94
0.29 0.30 0.30 0.32 0.33 0.34 0.35 0.36 0.39 0.40 0.42 0.42 0.41 0.40 0.40 0.41 0.43 0.44 0.45 0.50 0.48 0.45 0.47 0.51 0.47 0.46 0.48 0.55 0.60 0.49 0.49 0.57 0.56 0.52 0.55 0.50 0.61 0.85 0.97 0.98 0.88 0.91 0.92
0.30 0.31 0.32 0.33 0.33 0.34 0.37 0.39 0.41 0.42 0.42 0.43 0.44 0.44 0.45 0.45 0.45 0.46 0.47 0.49 0.51 0.50 0.50 0.52 0.51 0.49 0.46 0.51 0.54 0.61 0.51 0.51 0.52 0.54 0.55 0.59 0.53 0.64 0.86 0.96 0.86 0.87 0.90
0.31 0.32 0.32 0.33 0.34 0.36 0.38 0.39 0.40 0.42 0.45 0.47 0.49 0.49 0.50 0.49 0.48 0.48 0.49 0.50 0.52 0.53 0.53 0.55 0.55 0.52 0.49 0.53 0.52 0.55 0.51 0.54 0.51 0.45 0.53 0.60 0.53 0.56 0.65 0.74 0.80 0.84 0.82
0.32 0.32 0.31 0.34 0.36 0.37 0.37 0.40 0.44 0.47 0.45 0.46 0.48 0.49 0.51 0.50 0.50 0.49 0.47 0.48 0.51 0.53 0.56 0.55 0.58 0.56 0.53 0.55 0.48 0.52 0.47 0.61 0.55 0.49 0.49 0.51 0.50 0.45 0.51 0.65 0.66 0.72 0.79
0.32 0.32 0.34 0.35 0.36 0.38 0.40 0.43 0.44 0.43 0.45 0.48 0.49 0.52 0.52 0.53 0.55 0.54 0.53 0.52 0.50 0.51 0.52 0.54 0.54 0.56 0.60 0.61 0.54 0.60 0.57 0.56 0.48 0.46 0.49 0.47 0.49 0.47 0.48 0.57 0.63 0.64 0.61
0.32 0.33 0.34 0.35 0.36 0.39 0.43 0.46 0.43 0.44 0.48 0.47 0.50 0.51 0.51 0.51 0.49 0.53 0.53 0.52 0.49 0.50 0.52 0.54 0.52 0.55 0.54 0.56 0.61 0.67 0.63 0.58 0.58 0.49 0.46 0.54 0.49 0.48 0.46 0.49 0.55 0.57 0.53
0.32 0.33 0.35 0.37 0.39 0.43 0.45 0.42 0.43 0.46 0.46 0.46 0.46 0.47 0.46 0.45 0.48 0.45 0.47 0.49 0.48 0.51 0.53 0.56 0.55 0.53 0.52 0.49 0.57 0.56 0.50 0.49 0.45 0.46 0.48 0.51 0.54 0.53 0.50 0.52 0.54 0.53 0.59
0.32 0.33 0.37 0.41 0.42 0.44 0.41 0.43 0.46 0.46 0.46 0.46 0.46 0.45 0.43 0.42 0.47 0.45 0.48 0.47 0.48 0.48 0.53 0.55 0.55 0.54 0.57 0.61 0.60 0.53 0.52 0.50 0.51 0.53 0.53 0.54 0.55 0.54 0.53 0.56 0.54 0.47 0.47
0.32 0.35 0.40 0.43 0.44 0.43 0.46 0.46 0.48 0.48 0.47 0.47 0.46 0.47 0.45 0.41 0.44 0.47 0.49 0.49 0.46 0.48 0.52 0.54 0.54 0.55 0.56 0.59 0.55 0.53 0.50 0.47 0.44 0.44 0.43 0.38 0.52 0.57 0.60 0.62 0.57 0.52 0.48
0.36 0.40 0.43 0.46 0.45 0.47 0.48 0.49 0.49 0.49 0.49 0.48 0.47 0.47 0.47 0.43 0.41 0.44 0.48 0.48 0.49 0.48 0.49 0.50 0.52 0.54 0.58 0.59 0.56 0.50 0.45 0.45 0.42 0.42 0.40 0.38 0.41 0.48 0.57 0.65 0.64 0.61 0.53
0.38 0.41 0.45 0.46 0.48 0.50 0.49 0.50 0.52 0.53 0.49 0.47 0.46 0.46 0.48 0.45 0.45 0.43 0.42 0.45 0.49 0.48 0.47 0.49 0.52 0.53 0.54 0.56 0.57 0.51 0.48 0.44 0.42 0.38 0.40 0.41 0.41 0.51 0.59 0.64 0.67 0.66 0.68
0.40 0.44 0.46 0.48 0.51 0.52 0.50 0.52 0.54 0.57 0.55 0.51 0.49 0.46 0.47 0.52 0.48 0.47 0.45 0.42 0.43 0.46 0.49 0.50 0.52 0.52 0.53 0.53 0.52 0.50 0.48 0.43 0.40 0.38 0.40 0.44 0.49 0.55 0.59 0.63 0.66 0.69 0.77
0.42 0.45 0.47 0.49 0.51 0.54 0.54 0.58 0.58 0.58 0.56 0.56 0.55 0.53 0.54 0.55 0.56 0.56 0.50 0.44 0.40 0.45 0.48 0.50 0.51 0.49 0.47 0.45 0.45 0.47 0.46 0.43 0.42 0.44 0.46 0.50 0.55 0.56 0.56 0.61 0.60 0.64 0.67
0.45 0.46 0.49 0.52 0.54 0.55 0.58 0.59 0.59 0.63 0.64 0.62 0.61 0.59 0.55 0.54 0.57 0.61 0.60 0.53 0.43 0.40 0.41 0.44 0.43 0.43 0.44 0.44 0.43 0.45 0.48 0.47 0.47 0.53 0.52 0.54 0.58 0.58 0.56 0.59 0.57 0.63 0.59
0.44 0.48 0.52 0.53 0.55 0.57 0.57 0.59 0.66 0.67 0.68 0.68 0.67 0.66 0.64 0.64 0.64 0.66 0.67 0.60 0.53 0.46 0.43 0.41 0.40 0.42 0.42 0.42 0.44 0.43 0.46 0.47 0.52 0.57 0.57 0.56 0.55 0.55 0.58 0.63 0.63 0.61 0.58
0.46 0.52 0.54 0.55 0.55 0.56 0.57 0.56 0.54 0.62 0.67 0.66 0.67 0.66 0.66 0.65 0.66 0.65 0.63 0.61 0.59 0.59 0.49 0.50 0.50 0.51 0.50 0.48 0.45 0.42 0.44 0.51 0.58 0.57 0.53 0.54 0.56 0.59 0.61 0.62 0.62 0.63 0.64
0.51 0.55 0.55 0.56 0.56 0.57 0.57 0.58 0.58 0.57 0.55 0.57 0.64 0.64 0.65 0.65 0.65 0.66 0.63 0.63 0.57 0.58 0.56 0.54 0.53 0.54 0.55 0.56 0.53 0.48 0.46 0.47 0.50 0.51 0.55 0.58 0.61 0.65 0.62 0.61 0.63 0.65 0.61
0.52 0.54 0.56 0.57 0.58 0.58 0.59 0.59 0.59 0.58 0.57 0.57 0.58 0.60 0.62 0.63 0.63 0.64 0.64 0.59 0.56 0.55 0.56 0.56 0.57 0.58 0.59 0.59 0.60 0.60 0.60 0.61 0.65 0.67 0.68 0.68 0.69 0.68 0.67 0.68 0.67 0.61 0.62
0.53 0.56 0.57 0.57 0.57 0.58 0.59 0.58 0.58 0.57 0.56 0.56 0.55 0.57 0.59 0.60 0.57 0.57 0.58 0.58 0.57 0.56 0.57 0.57 0.58 0.60 0.60 0.61 0.62 0.63 0.63 0.64 0.65 0.65 0.66 0.67 0.68 0.69 0.63 0.62 0.61 0.66 0.73
0.53 0.55 0.56 0.56 0.56 0.57 0.58 0.57 0.57 0.57 0.56 0.55 0.56 0.59 0.60 0.58 0.56 0.57 0.57 0.57 0.57 0.57 0.58 0.59 0.60 0.61 0.62 0.63 0.63 0.62 0.62 0.62 0.63 0.63 0.64 0.63 0.63 0.62 0.65 0.73 0.75 0.78 0.74
0.53 0.54 0.54 0.54 0.56 0.56 0.57 0.58 0.58 0.57 0.56 0.56 0.56 0.58 0.59 0.58 0.57 0.57 0.58 0.58 0.59 0.58 0.60 0.61 0.61 0.62 0.63 0.64 0.64 0.64 0.64 0.64 0.65 0.66 0.67 0.69 0.69 0.75 0.76 0.77 0.76 0.73 0.71
0.53 0.53 0.53 0.54 0.55 0.56 0.56 0.57 0.57 0.57 0.56 0.56 0.57 0.57 0.58 0.57 0.57 0.58 0.58 0.57 0.55 0.53 0.54 0.58 0.60 0.62 0.64 0.67 0.70 0.70 0.68 0.69 0.72 0.73 0.73 0.75 0.77 0.77 0.80 0.75 0.72 0.68 0.66
0.52 0.52 0.52 0.53 0.54 0.55 0.56 0.56 0.57 0.57 0.57 0.57 0.57 0.57 0.58 0.58 0.58 0.59 0.57 0.50 0.48 0.48 0.48 0.49 0.50 0.54 0.59 0.68 0.72 0.74 0.75 0.74 0.73 0.74 0.76 0.76 0.75 0.77 0.76 0.73 0.70 0.68 0.69
0.51 0.51 0.51 0.52 0.52 0.54 0.55 0.56 0.56 0.57 0.57 0.57 0.57 0.58 0.59 0.59 0.59 0.57 0.45 0.39 0.38 0.38 0.38 0.40 0.44 0.54 0.64 0.70 0.73 0.76 0.78 0.79 0.80 0.79 0.82 0.82 0.78 0.74 0.72 0.71 0.70 0.72 0.73
0.51 0.51 0.51 0.52 0.53 0.54 0.55 0.55 0.55 0.56 0.56 0.57 0.57 0.58 0.58 0.59 0.55 0.43 0.40 0.37 0.36 0.36 0.35 0.38 0.46 0.57 0.67 0.73 0.75 0.79 0.80 0.80 0.82 0.83 0.82 0.80 0.76 0.75 0.74 0.73 0.74 0.75 0.76